Regional Weather Roundup
Issued by NWS

Home | Current Version | Previous Version | Text Only | Print | Product List | Glossary Off
Versions: 1 2 3 4 5 6 7 8 9 10 11 12 13 14 15 16 17 18 19 20 21 22 23 24 25 26 27 28 29 30 31 32 33 34 35 36 37 38 39 40 41 42 43 44 45 46 47 48 49 50

000
ASUS43 KTOP 010708
RWRKS

WEATHER ROUNDUP FOR KANSAS
NATIONAL WEATHER SERVICE GOODLAND KS
200 AM CDT SAT OCT 01 2016

NOTE:  "FAIR" INDICATES FEW OR NO CLOUDS BELOW 12,000 FEET WITH NO
SIGNIFICANT WEATHER AND/OR OBSTRUCTIONS TO VISIBILITY.

KSZ001>006-013>018-027>032-041>047-010800-
NORTHWEST KANSAS

CITY           SKY/WX    TMP DP  RH WIND       PRES   REMARKS
GOODLAND       CLOUDY    56  44  64 S13       30.13F
HAYS           PTCLDY    54  39  58 CALM      30.14F
HILL CITY      PTCLDY    52  47  83 CALM      30.15F
RUSSELL        CLOUDY    54  47  77 SE6       30.13F
$$

KSZ061>065-074>080-084>089-010800-
SOUTHWEST KANSAS

CITY           SKY/WX    TMP DP  RH WIND       PRES   REMARKS
DODGE CITY     MOCLDY    57  47  69 SE8       30.14S
ELKHART          N/A     55  45  69 SE12        N/A
GARDEN CITY    CLOUDY    57  46  66 SE12      30.12F
GREAT BEND     MOCLDY    55  43  62 CALM      30.14S
LIBERAL        CLEAR     61  46  59 SE12      30.11F
PRATT          CLOUDY    56  44  65 SE3       30.14F
$$

KSZ066>073-081>083-090>101-010800-
SOUTHEAST KANSAS

CITY           SKY/WX    TMP DP  RH WIND       PRES   REMARKS
CHANUTE        MOCLDY    54  51  90 CALM      30.12S
COFFEYVILLE    PTCLDY    54  52  93 N3        30.12R
HUTCHINSON     CLOUDY    51  48  89 CALM      30.14F
MEDICINE LODGE   N/A     57  50  77 CALM      30.13S
NEWTON         CLEAR     57  49  74 E6        30.14F
PARSONS        PTCLDY    51  50  96 CALM      30.13R
WICHITA INTL   PTCLDY    59  53  80 NE3       30.13S
WICHITA JABRA  CLEAR     55  52  89 CALM      30.13S
WICHITA MCCONL CLEAR     58  49  74 E6        30.13S
WINFIELD       PTCLDY    53  50  89 CALM      30.14S
$$

KSZ007>012-019>026-033>040-048>060-102>105-010800-
NORTHEAST KANSAS

CITY           SKY/WX    TMP DP  RH WIND       PRES   REMARKS
CONCORDIA      MOCLDY    55  50  83 CALM      30.14F
EMPORIA        PTCLDY    53  50  89 W5        30.13S
LAWRENCE       CLEAR     50  50 100 W3        30.14R
MANHATTAN      PTCLDY    50  49  96 CALM      30.14S
MARYSVILLE     PTCLDY    50  50 100 CALM      30.15F
OLATHE IND     CLEAR     54  52  93 CALM      30.14S
OLATHE EXE     CLEAR     55  52  89 NE3       30.13S
SALINA         CLEAR     55  50  83 CALM      30.14F
TOPEKA BILLARD PTCLDY    52  49  89 CALM      30.14R
TOPEKA FORBES  PTCLDY    53  50  89 CALM      30.13S
$$



USA.gov is the U.S. government's official web portal to all federal, state and local government web resources and services.